TimeMST,TemperatureF,Dew PointF,Humidity,Sea Level PressureIn,VisibilityMPH,Wind Direction,Wind SpeedMPH,Gust SpeedMPH,PrecipitationIn,Events,Conditions,WindDirDegrees,DateUTC
12:52 AM,55.0,23.0,29,30.13,10.0,Calm,Calm,-,N/A,,Clear,0,2012-11-06 07:52:00
1:52 AM,46.0,19.0,34,30.15,10.0,SE,5.8,-,N/A,,Clear,140,2012-11-06 08:52:00
2:52 AM,48.9,23.0,36,30.14,10.0,East,3.5,-,N/A,,Clear,80,2012-11-06 09:52:00
3:52 AM,51.1,24.1,35,30.12,10.0,NNE,9.2,-,N/A,,Clear,30,2012-11-06 10:52:00
4:52 AM,48.0,25.0,41,30.16,10.0,North,4.6,-,N/A,,Clear,350,2012-11-06 11:52:00
5:52 AM,45.0,24.1,44,30.19,10.0,NW,6.9,-,N/A,,Clear,310,2012-11-06 12:52:00
6:52 AM,46.0,23.0,40,30.21,10.0,NNW,9.2,-,N/A,,Clear,340,2012-11-06 13:52:00
7:52 AM,48.0,21.9,36,30.22,10.0,NNE,5.8,-,N/A,,Clear,20,2012-11-06 14:52:00
8:52 AM,51.1,21.9,32,30.25,10.0,NNW,6.9,-,N/A,,Clear,340,2012-11-06 15:52:00
9:52 AM,55.0,21.9,28,30.22,10.0,NNW,8.1,-,N/A,,Clear,330,2012-11-06 16:52:00
10:52 AM,61.0,21.9,22,30.21,10.0,NW,4.6,-,N/A,,Clear,310,2012-11-06 17:52:00
11:52 AM,64.0,23.0,21,30.17,10.0,Calm,Calm,-,N/A,,Clear,0,2012-11-06 18:52:00
12:52 PM,66.9,23.0,19,30.11,10.0,West,3.5,-,N/A,,Clear,260,2012-11-06 19:52:00
1:52 PM,66.9,23.0,19,30.11,10.0,SSW,5.8,-,N/A,,Clear,210,2012-11-06 20:52:00
2:52 PM,70.0,23.0,17,30.09,10.0,Calm,Calm,-,N/A,,Clear,0,2012-11-06 21:52:00
3:52 PM,71.1,21.9,16,30.07,10.0,Calm,Calm,-,N/A,,Clear,0,2012-11-06 22:52:00
4:52 PM,68.0,21.9,17,30.09,10.0,Calm,Calm,-,N/A,,Clear,0,2012-11-06 23:52:00
5:52 PM,63.0,21.9,21,30.12,10.0,South,4.6,-,N/A,,Clear,170,2012-11-07 00:52:00
6:52 PM,59.0,21.0,23,30.14,10.0,East,6.9,-,N/A,,Clear,100,2012-11-07 01:52:00
7:52 PM,57.9,23.0,26,30.14,10.0,ENE,5.8,-,N/A,,Clear,60,2012-11-07 02:52:00
8:52 PM,57.0,21.0,25,30.14,10.0,Calm,Calm,-,N/A,,Clear,0,2012-11-07 03:52:00
9:52 PM,55.0,21.0,27,30.14,10.0,NNE,6.9,-,N/A,,Clear,30,2012-11-07 04:52:00
10:52 PM,52.0,19.9,28,30.14,10.0,Calm,Calm,-,N/A,,Clear,0,2012-11-07 05:52:00
11:52 PM,50.0,21.0,32,30.14,10.0,NE,6.9,-,N/A,,Clear,50,2012-11-07 06:52:00